Theta_e
311 311 311 311 311 311 311 311 311 311 311 311 312 312 313 313 312 312 312 312 312 313 313 314 315 316 318 320 321 321 321 321 321 321 322 322 322 322 323 322 321 321 323 324 325 325 325 325 325 324 323 322 321 321 320 319 320 320 320 320 320 319 317 317 316 314 310 305 301 299 298 296 295 295 295 295 294 293 293 292 292 292 292 292 291
311 311 311 311 311 312 311 311 311 311 311 311 311 311 311 311 311 311 311 311 311 311 311 311 312 314 317 318 319 320 321 321 321 321 322 322 321 319 319 320 322 324 323 323 323 322 322 324 324 323 321 319 318 319 319 320 321 320 320 319 319 318 317 316 316 315 311 307 301 298 297 296 296 296 296 295 294 293 293 292 292 292 292 292 291
311 311 311 311 312 312 312 311 311 311 311 311 311 311 311 311 310 311 311 311 311 311 311 311 311 313 314 316 318 321 323 324 325 325 324 323 321 320 320 320 321 323 322 321 322 323 323 323 323 323 322 321 320 320 321 322 321 320 320 319 318 318 317 317 316 315 313 309 302 297 296 296 296 296 295 295 294 293 293 292 292 292 292 291 291
311 311 311 312 311 311 311 310 311 310 310 311 310 310 311 310 311 311 311 311 311 311 311 311 311 312 313 314 317 321 322 322 323 322 320 320 320 319 320 320 321 321 320 319 321 323 324 324 325 325 324 323 322 321 321 321 321 320 319 318 318 318 317 317 315 314 313 309 301 295 295 295 295 295 295 294 293 293 293 292 292 292 291 291 292
311 311 311 311 310 310 310 310 310 310 310 310 311 310 311 311 311 311 311 311 311 311 311 311 311 311 312 313 315 315 316 316 317 317 318 319 320 319 318 319 320 321 322 322 323 324 323 323 323 323 323 323 322 321 320 320 320 320 318 317 317 317 317 316 315 313 312 306 297 294 295 294 294 294 294 293 293 293 292 292 292 292 291 292 293
311 310 310 310 310 310 310 310 310 311 310 310 310 310 311 311 311 311 311 311 311 311 311 311 311 311 311 311 311 311 311 312 314 317 318 319 320 320 320 320 319 320 321 323 323 324 324 323 322 322 322 323 323 320 318 319 319 318 318 317 317 317 317 316 314 312 309 301 294 294 294 294 294 294 293 293 293 292 292 292 292 291 292 293 294
310 310 310 310 310 310 310 310 310 310 310 310 310 310 310 311 310 310 310 310 311 311 311 311 311 311 310 310 310 310 309 310 312 315 314 314 316 319 321 322 320 319 320 322 323 322 322 322 322 322 322 322 322 321 319 319 319 318 318 317 316 316 314 314 313 308 303 296 293 294 294 294 294 293 293 293 292 292 292 292 292 292 292 293 294
310 310 310 310 310 310 310 310 310 310 310 310 310 311 310 310 310 310 310 310 310 311 311 311 311 311 311 310 310 310 310 309 311 312 312 312 314 315 317 320 321 321 321 321 321 320 320 321 321 321 321 320 320 320 320 319 318 317 316 316 314 313 311 312 309 301 296 294 294 294 293 293 294 293 293 293 292 292 292 292 292 292 292 294 295
310 310 311 310 310 310 310 310 310 310 311 311 311 311 310 310 310 310 310 310 310 310 310 311 311 311 311 311 310 310 310 309 309 310 310 312 315 317 318 320 320 319 320 321 320 320 320 320 320 320 319 318 318 318 318 317 316 315 314 314 312 311 310 309 303 295 293 294 294 293 293 293 293 293 293 293 293 292 292 292 292 291 292 294 293
311 311 311 310 310 310 310 310 311 311 311 311 311 311 310 310 310 310 310 310 310 310 310 311 311 311 311 311 311 310 309 309 309 308 309 311 313 315 316 317 318 318 319 320 320 320 320 320 320 320 319 318 317 317 316 315 314 312 312 311 310 310 310 306 298 293 294 294 294 294 293 293 293 293 293 293 292 292 291 292 292 291 292 292 291
311 311 310 310 310 310 310 310 311 311 311 311 311 311 311 311 310 310 310 310 310 310 310 310 310 311 311 311 311 311 310 310 309 308 308 309 310 311 312 312 314 315 316 317 317 318 318 319 320 319 318 317 317 317 316 314 312 311 310 310 309 308 305 299 294 294 294 294 294 294 293 293 294 293 293 292 292 291 291 292 291 290 290 290 290
311 311 311 310 310 310 310 311 311 311 311 311 311 311 311 311 310 310 310 310 310 310 310 310 310 310 311 311 311 311 311 310 310 309 309 308 308 309 311 313 314 315 315 315 316 316 317 319 320 319 318 317 317 316 315 313 311 310 309 308 307 303 297 294 293 293 293 293 293 293 293 293 293 293 293 292 291 291 291 291 291 290 290 290 290
312 311 311 311 310 310 310 311 311 312 311 311 311 311 311 311 310 310 310 310 310 310 310 310 310 310 311 311 311 310 310 309 309 309 310 311 310 310 312 315 317 318 318 318 318 319 319 320 319 318 317 317 316 316 315 312 311 309 308 306 302 297 294 292 292 292 292 292 292 292 293 293 292 292 292 291 291 291 291 291 290 290 290 290 289
312 312 311 311 311 310 311 311 311 311 311 311 311 311 311 311 310 310 310 310 310 310 310 310 310 310 310 310 310 310 310 310 310 310 311 312 312 312 313 315 316 317 317 318 319 320 320 319 318 317 316 315 315 315 314 313 311 309 305 302 298 294 293 292 292 292 292 292 292 292 293 292 292 291 291 290 290 290 290 290 290 289 289 289 288
312 312 311 311 311 310 311 311 311 311 311 311 310 310 310 310 310 310 310 310 310 310 310 310 310 310 310 310 310 310 310 310 310 311 312 311 311 312 313 314 315 315 316 317 318 319 319 318 317 316 315 314 314 314 314 312 311 307 302 298 295 293 293 292 292 292 292 292 292 292 292 291 291 290 290 290 290 290 290 290 289 289 289 288 288
312 312 311 311 311 310 311 311 311 311 311 310 310 310 310 310 310 310 310 310 310 310 310 309 309 309 309 309 309 309 310 310 309 310 311 311 311 312 312 313 314 314 315 316 315 316 317 317 316 314 314 313 313 313 313 312 310 305 299 295 293 293 293 292 292 292 292 291 291 291 291 290 290 290 290 289 289 289 289 289 290 290 289 288 289
312 311 311 311 311 310 311 311 311 311 310 310 310 310 310 310 309 310 310 310 309 309 309 309 309 309 309 309 309 309 308 309 309 309 309 310 311 312 312 313 314 315 315 315 315 315 315 315 314 313 312 312 312 312 311 311 309 305 298 294 293 292 292 292 291 291 291 291 291 291 290 290 290 289 289 289 289 289 289 289 291 291 290 290 290
312 311 311 311 310 310 311 310 310 310 310 310 310 310 310 309 310 310 310 310 309 309 309 309 309 308 308 308 308 308 308 308 308 308 308 308 309 309 310 311 312 313 313 313 313 313 313 313 313 312 312 311 311 310 310 310 310 307 300 294 292 292 291 291 291 291 291 290 290 290 290 290 289 289 289 289 289 289 289 290 291 290 290 290 289
312 311 310 310 310 310 310 310 310 310 310 310 310 310 310 310 310 310 310 309 309 309 308 308 308 308 308 308 308 308 308 308 308 308 308 308 308 308 308 308 309 309 310 310 310 310 311 311 311 311 311 310 309 308 309 309 309 307 300 293 291 291 291 291 290 290 290 290 289 289 289 289 289 288 288 288 289 289 289 290 290 290 290 289 287
311 310 310 310 310 310 310 310 310 310 310 310 310 310 310 310 309 309 309 309 308 308 308 308 307 307 307 307 307 307 307 307 307 307 307 307 307 307 307 307 307 307 307 307 308 308 308 308 308 308 308 307 307 307 307 308 307 304 299 293 291 291 291 290 290 289 289 289 289 288 288 288 288 288 288 288 288 289 289 290 290 290 288 287 286
311 311 310 310 310 310 310 310 310 310 310 310 310 309 309 310 309 309 308 308 308 308 308 308 307 307 307 307 307 307 307 307 307 307 307 307 307 306 306 306 306 306 306 306 306 307 307 307 307 306 305 305 305 306 307 307 305 302 297 293 290 290 290 290 289 289 289 288 288 288 288 288 288 288 288 288 288 288 289 290 290 289 288 287 287
311 311 310 310 309 309 309 309 309 309 310 310 310 310 309 309 309 308 308 308 308 308 308 308 307 307 307 307 307 307 307 307 307 306 306 306 306 306 306 305 305 305 305 305 305 305 306 306 306 305 305 304 304 305 306 304 302 298 294 291 289 289 289 289 289 289 289 288 288 288 288 288 288 288 288 288 288 288 289 290 290 289 288 288 288
312 311 310 310 309 309 309 309 309 309 310 310 309 309 309 308 308 308 308 308 308 308 307 307 307 307 307 307 307 307 307 307 306 306 306 306 305 305 305 305 305 304 304 304 305 305 305 305 305 305 305 304 304 304 303 301 297 294 291 289 289 289 289 288 288 288 288 288 288 288 288 288 288 288 287 287 287 288 289 289 289 288 288 289 288
311 311 310 309 309 309 309 309 309 310 310 309 309 309 308 308 308 308 308 308 308 308 308 307 307 307 307 307 307 306 306 306 306 305 305 305 305 305 304 304 304 304 304 304 304 304 304 305 305 305 304 304 303 302 301 298 294 291 290 289 289 289 288 288 288 288 288 288 288 288 288 288 287 287 287 287 287 287 288 288 287 287 287 287 287
311 310 310 309 309 309 309 309 310 310 309 309 309 308 308 308 308 308 308 308 308 308 307 307 307 307 307 307 306 306 306 305 305 305 304 304 304 304 304 304 303 303 303 303 303 303 304 304 304 304 303 303 302 300 298 295 293 291 290 289 288 288 288 288 288 288 288 288 288 288 288 287 287 287 286 286 286 286 287 287 287 286 286 286 286
310 310 310 309 309 309 309 309 310 309 309 308 308 308 308 308 308 308 308 308 308 308 307 307 307 307 307 306 306 306 305 305 304 304 304 304 303 303 303 303 303 303 303 302 302 302 302 303 303 302 302 301 300 299 298 295 293 291 290 289 288 288 288 288 287 287 287 287 287 287 287 287 287 286 286 286 285 286 286 286 286 285 285 286 286
310 309 309 309 308 309 309 309 309 309 308 308 308 308 308 308 308 308 308 308 308 308 307 307 307 307 307 306 305 305 304 304 304 303 303 303 303 303 303 302 302 302 302 302 301 301 301 301 301 301 300 299 299 298 297 295 294 292 290 289 288 288 288 288 287 287 287 287 287 287 287 286 286 286 285 285 285 285 285 285 285 285 285 285 285
309 309 308 308 308 309 309 309 309 308 308 308 308 308 308 308 307 307 308 308 308 307 307 307 307 306 306 305 304 304 303 303 303 303 303 302 302 302 302 301 301 301 300 300 300 300 299 299 299 299 299 298 297 297 296 295 294 292 291 290 289 289 288 288 288 288 287 287 286 286 286 285 285 285 285 285 285 284 284 285 285 284 284 283 284
308 308 307 308 308 309 309 309 308 308 308 308 308 307 307 307 307 307 307 307 307 307 307 307 306 306 305 304 304 303 303 303 303 302 302 302 301 301 300 300 299 299 298 298 298 297 297 297 297 297 297 296 296 296 295 294 293 292 291 290 289 289 288 288 287 287 286 286 285 285 285 285 285 284 284 284 284 284 284 284 284 284 283 283 283
307 307 307 308 308 309 308 308 308 308 308 308 307 307 307 307 307 307 307 307 307 307 306 306 305 305 304 303 303 303 302 302 302 301 301 300 299 298 298 297 297 296 296 296 295 295 295 295 295 295 295 295 295 294 294 294 293 293 292 290 289 289 288 287 286 286 285 284 284 284 284 284 284 284 283 283 283 283 283 283 283 283 283 283 283
307 307 307 308 308 308 308 308 308 308 308 307 307 307 307 307 307 307 306 306 306 306 305 305 304 303 303 302 302 302 301 301 300 299 298 297 297 296 296 295 295 294 294 294 294 293 293 293 292 292 292 292 292 293 293 293 293 292 292 291 290 289 288 287 286 285 284 284 284 283 283 283 283 283 283 283 282 282 282 282 282 282 282 282 282
307 307 308 308 308 308 308 308 308 308 307 307 307 307 307 307 307 306 306 305 305 304 304 303 303 302 302 301 301 300 299 298 297 297 296 296 295 295 294 294 293 293 292 292 292 291 291 290 290 290 290 290 290 290 290 290 290 290 290 290 290 289 288 287 286 285 284 284 284 283 283 283 283 282 282 282 282 281 281 281 281 281 281 281 281
307 307 308 308 307 307 308 308 308 307 307 307 306 306 306 306 306 306 305 304 304 303 303 302 302 301 300 299 298 297 297 296 296 295 295 294 293 293 292 292 291 291 291 290 290 290 289 289 289 288 288 288 288 288 288 288 288 288 288 289 289 288 288 287 286 285 285 284 284 283 283 282 282 282 282 282 281 281 281 281 281 280 280 280 280
307 307 307 307 307 307 307 307 307 307 307 306 306 306 305 305 305 305 305 304 303 302 302 301 300 299 298 297 296 296 295 295 294 293 292 292 291 291 290 290 289 289 289 289 289 288 288 288 288 288 287 287 287 287 287 287 287 287 287 287 287 287 287 286 286 285 285 284 284 283 282 282 281 281 281 280 280 280 280 280 280 280 279 279 279
306 306 306 307 307 307 308 307 307 307 306 305 305 305 305 304 304 303 304 303 302 301 300 298 297 297 296 295 295 294 293 292 291 291 290 290 289 289 289 289 288 288 288 288 287 287 287 287 287 287 287 286 286 286 286 286 286 286 286 286 286 286 286 286 286 285 285 284 284 283 282 280 280 279 279 279 279 279 279 279 279 279 279 278 278
306 306 306 306 307 307 307 306 306 305 305 305 304 303 303 303 303 302 302 301 299 298 297 296 295 295 294 293 292 292 291 290 290 289 289 289 288 288 288 288 287 287 287 287 287 286 286 286 286 286 286 286 286 286 286 286 285 285 285 286 286 286 285 285 285 285 284 283 283 281 280 279 278 278 278 278 278 278 278 278 278 278 278 278 278
306 306 306 306 306 305 305 305 304 304 303 303 303 303 302 302 301 300 299 297 296 296 295 294 293 293 292 291 290 290 289 289 289 288 288 288 287 287 287 287 286 286 286 286 286 286 286 286 285 285 285 285 285 285 285 285 285 285 285 285 285 285 284 284 283 282 281 281 280 279 278 278 278 278 278 278 278 278 278 278 278 278 278 278 277
306 305 305 304 304 304 304 303 303 302 302 302 301 301 300 299 298 297 296 295 295 294 293 292 291 291 290 290 289 289 288 288 288 287 287 287 286 286 286 286 286 286 286 286 286 286 286 285 285 285 285 285 285 285 284 284 284 284 284 284 283 283 282 281 280 279 279 278 278 277 277 277 277 277 277 277 277 277 277 277 277 277 277 277 277
305 304 303 303 303 302 302 302 302 301 301 300 299 298 297 296 295 295 294 293 293 292 291 290 290 290 289 289 288 288 287 287 287 286 286 286 286 286 286 286 286 286 286 286 286 285 285 285 285 285 285 284 284 284 284 283 283 283 283 283 282 282 281 280 279 279 279 278 278 277 276 276 276 276 276 276 276 276 276 276 277 277 277 277 277
303 302 302 301 301 301 301 301 300 299 298 297 296 295 294 294 293 293 292 291 291 290 290 289 289 288 288 287 287 287 287 286 286 286 286 286 286 286 286 286 286 286 286 285 285 285 285 285 285 284 284 284 284 283 283 283 283 282 282 282 281 281 281 280 280 279 279 278 277 276 275 275 275 275 275 275 275 275 276 276 276 276 276 276 276
302 301 301 301 300 300 299 298 297 296 295 294 294 293 293 292 291 291 290 290 289 289 288 288 288 287 287 287 286 286 286 286 286 286 286 286 286 286 286 286 286 286 285 285 285 285 285 284 284 284 284 283 283 283 282 282 282 281 281 281 280 280 280 280 279 279 278 277 276 275 274 274 274 274 274 274 275 275 275 275 275 275 275 275 276
300 300 300 299 298 297 296 295 294 293 293 292 292 291 290 290 290 289 289 288 288 288 287 287 287 286 286 286 286 286 286 286 286 286 286 286 286 286 286 286 285 285 285 285 285 284 284 284 284 283 283 283 282 282 282 281 281 280 280 280 279 279 279 279 279 278 277 276 275 274 274 274 274 273 274 274 274 274 274 274 274 274 274 274 275
299 298 297 296 294 293 293 292 292 291 291 290 290 289 289 289 288 288 288 287 287 287 286 286 286 286 286 286 286 286 286 286 286 286 286 286 286 285 285 285 285 285 284 284 284 284 284 284 283 283 283 282 282 281 281 280 280 280 279 279 279 278 278 278 278 278 277 276 275 274 274 274 273 273 273 273 273 273 273 273 273 273 273 273 274
295 295 294 293 292 291 290 290 290 289 289 289 288 288 288 287 287 287 286 286 286 286 286 286 286 286 286 286 286 286 286 286 286 286 285 285 285 285 285 284 284 284 284 283 283 283 283 283 283 282 282 281 281 280 280 279 279 279 278 278 278 278 277 277 277 277 276 276 275 275 274 274 273 273 273 273 273 273 273 273 272 272 272 272 273
292 292 291 290 289 289 288 288 288 288 288 287 287 287 286 286 286 286 286 286 286 286 286 286 286 286 286 286 286 286 285 285 285 285 285 285 284 284 284 284 283 283 283 283 283 283 283 282 282 282 281 281 280 280 279 279 278 278 277 277 277 277 277 277 276 276 276 276 275 275 274 274 273 273 272 272 272 272 272 272 272 272 272 272 273
290 289 289 288 288 288 287 287 287 287 286 286 286 286 285 285 285 285 285 286 286 286 286 286 286 286 286 285 285 285 285 285 285 284 284 284 284 283 283 283 283 283 282 282 282 282 282 281 281 281 280 280 280 279 278 278 278 277 277 277 276 276 276 276 276 276 276 275 275 275 275 275 274 273 273 272 272 272 272 272 271 271 271 271 272
287 287 287 287 287 286 286 286 286 285 285 285 285 285 285 285 285 286 286 286 286 286 286 286 285 285 285 285 285 284 284 284 284 284 283 283 283 283 283 282 282 282 281 281 281 281 280 280 280 280 279 279 279 278 278 277 277 277 276 276 276 276 276 276 276 276 276 276 275 275 275 275 274 274 273 272 271 271 271 271 271 271 271 271 271
286 286 286 285 285 285 285 285 285 285 285 285 285 285 286 286 286 286 286 286 286 285 285 285 285 285 284 284 284 284 284 283 283 283 283 282 282 282 282 281 281 281 280 280 280 280 279 279 279 279 279 279 278 278 277 277 276 276 276 276 275 275 275 276 276 276 276 276 275 275 275 274 274 273 272 272 271 271 271 271 271 270 270 270 271
285 285 285 284 284 285 285 285 285 285 286 286 286 286 286 286 286 286 285 285 285 285 285 285 284 284 284 283 283 283 283 282 282 282 282 281 281 281 280 280 280 280 280 279 279 279 279 278 278 278 278 278 277 277 277 276 276 276 275 275 275 275 275 275 275 276 276 276 275 275 275 274 273 273 272 271 271 270 270 270 270 270 270 270 270
284 284 285 285 285 285 286 286 286 286 286 286 286 286 286 286 285 285 285 285 285 285 284 284 284 283 283 283 283 282 282 282 281 281 280 280 280 280 280 279 279 279 279 279 278 278 278 278 278 278 277 277 277 277 276 276 276 276 275 275 275 275 275 275 275 275 275 275 275 275 274 274 273 273 272 271 271 270 270 270 270 270 270 270 270
285 285 285 285 286 286 286 286 286 286 286 286 286 286 285 285 285 285 285 284 284 284 283 283 283 283 282 282 282 281 281 280 280 280 279 279 279 279 279 279 279 279 278 278 278 277 277 277 277 277 277 277 277 276 276 276 276 276 275 275 274 274 275 275 275 275 275 275 275 274 274 273 273 272 272 271 271 270 270 270 270 270 269 269 269
Wind_Speed
26 23 20 19 20 20 21 22 22 23 24 24 24 23 22 22 21 21 21 22 22 23 23 23 24 24 24 24 24 24 24 24 23 23 23 25 26 28 28 28 28 28 28 30 31 33 35 35 33 32 32 34 35 35 36 35 34 34 35 38 36 32 29 27 27 29 32 32 29 26 26 28 28 27 27 28 28 28 27 27 26 24 23 23 23
24 22 20 20 21 21 21 21 21 20 20 19 18 18 18 18 18 18 18 19 19 20 21 21 22 22 22 23 23 23 22 22 23 23 23 23 23 25 26 26 26 27 28 29 29 31 34 35 34 32 29 30 32 32 31 31 31 29 31 34 33 30 29 29 30 32 34 34 33 29 26 27 28 28 28 29 29 29 28 27 26 24 23 23 23
24 23 22 21 21 20 19 18 17 16 15 14 14 14 14 14 15 15 15 16 17 18 19 19 20 21 22 22 21 20 20 21 23 25 25 24 24 24 25 26 24 25 28 29 29 31 34 35 35 34 32 31 29 28 27 28 29 28 30 32 32 32 33 32 32 33 34 34 34 32 29 28 28 28 29 30 30 29 29 28 26 24 23 22 23
24 23 22 20 19 17 16 14 13 12 12 12 12 12 12 11 12 13 13 14 15 16 17 18 19 21 22 23 22 22 23 24 26 26 25 26 26 24 24 25 24 25 27 27 28 31 32 33 34 35 37 37 30 25 25 27 27 29 31 33 35 38 38 34 32 32 32 33 33 32 31 29 28 28 29 30 30 30 29 28 26 25 23 22 24
21 20 18 17 15 14 13 12 11 11 10 10 9 9 9 10 10 11 12 13 14 16 17 18 20 21 22 23 24 25 26 27 27 26 25 25 25 24 24 24 25 26 27 27 28 29 28 29 31 32 37 38 31 24 23 25 27 30 32 34 38 41 39 35 32 31 32 32 32 31 31 30 29 29 30 30 30 30 29 28 27 25 23 23 25
17 16 15 14 13 13 12 12 11 10 9 9 8 8 9 9 10 11 11 12 14 15 17 18 19 19 20 21 23 24 25 25 26 25 25 25 24 24 24 24 26 27 26 26 26 26 26 27 29 31 34 35 30 24 22 24 27 30 32 34 38 40 38 36 34 32 33 32 31 31 31 31 30 30 30 30 31 30 29 28 26 25 23 24 26
15 14 14 14 13 13 12 11 10 10 9 8 8 8 9 10 10 11 11 12 13 14 15 16 17 17 19 20 21 23 23 23 24 25 25 25 25 26 24 23 24 26 26 25 23 23 25 27 28 30 33 34 30 26 25 27 29 31 33 34 37 37 37 36 33 33 33 32 32 33 32 32 31 31 31 31 30 30 29 28 26 24 24 26 26
13 13 13 13 13 12 12 11 10 9 9 8 9 9 10 11 11 11 12 12 13 13 13 14 15 15 16 18 19 20 21 21 22 24 23 21 22 22 23 23 24 24 23 22 20 21 23 24 24 25 28 31 32 30 28 29 30 32 34 35 36 37 37 34 32 33 33 32 32 33 33 33 33 33 32 32 32 31 28 26 25 24 25 26 27
12 12 13 13 13 12 12 12 11 11 10 10 11 11 12 12 12 12 12 12 12 12 12 13 13 13 14 15 16 17 19 19 19 20 20 19 20 20 21 23 23 22 21 21 20 21 22 22 21 21 23 27 30 29 27 28 30 31 34 35 37 36 33 30 31 33 33 33 34 34 35 35 35 35 35 34 33 30 26 25 25 24 25 27 26
11 12 13 13 14 14 14 13 13 12 12 12 12 12 12 12 12 12 12 12 12 11 11 11 11 12 13 14 15 15 16 17 17 18 18 19 21 22 23 23 23 22 21 20 20 20 21 21 22 21 21 21 22 22 24 26 28 30 31 33 33 32 29 30 33 34 34 35 35 35 36 37 37 36 36 34 31 28 26 26 25 24 25 26 26
13 14 14 15 15 16 15 15 14 13 13 13 13 12 12 13 12 12 12 12 12 11 11 10 10 11 11 13 14 14 15 15 15 16 17 18 19 20 21 22 22 23 23 24 24 23 22 23 23 21 18 17 18 21 23 24 25 27 29 29 29 28 28 30 32 33 34 35 35 35 37 37 37 36 35 33 30 29 28 26 25 25 26 26 25
16 16 16 17 18 17 17 16 15 15 14 14 13 13 13 13 13 12 12 12 11 10 10 10 10 10 11 12 13 13 13 13 12 12 13 15 15 15 15 17 18 20 21 22 22 23 23 24 22 18 16 17 20 23 23 22 23 24 26 26 27 28 28 28 29 30 32 33 33 35 36 36 35 35 34 33 31 29 28 27 26 26 25 25 25
17 18 19 19 20 19 18 18 17 17 15 14 14 14 14 14 14 13 13 12 11 11 10 10 10 10 11 12 12 12 11 11 11 11 12 12 14 14 16 17 17 18 19 19 19 21 23 23 20 18 17 20 23 23 21 20 20 22 24 26 28 29 28 28 29 29 30 31 33 34 34 34 34 33 32 31 30 29 29 27 26 25 25 25 24
20 20 21 22 22 21 21 21 19 18 16 15 16 16 15 15 15 14 13 12 11 11 10 10 10 10 10 10 10 10 10 10 11 12 13 14 15 16 17 19 19 20 20 19 18 19 20 20 19 18 19 20 22 21 20 19 20 21 24 27 29 29 27 28 29 30 31 32 33 34 33 33 33 31 29 29 30 29 28 26 25 25 25 25 24
22 22 23 24 25 24 23 22 21 19 18 17 17 17 17 16 16 14 13 12 11 11 10 9 8 8 9 9 8 9 10 11 12 12 14 15 15 16 17 18 19 20 20 20 19 19 19 20 21 20 20 20 21 20 19 19 20 21 23 27 28 27 26 27 28 29 31 32 33 33 33 32 32 31 30 30 30 29 27 26 26 26 26 26 26
24 24 25 26 27 26 25 24 23 21 19 18 18 18 18 17 16 14 13 12 11 10 9 8 7 7 7 7 7 8 8 9 10 11 13 14 14 15 16 17 18 19 19 20 20 20 20 21 22 22 21 21 20 20 20 20 21 21 23 26 27 27 26 27 28 30 31 32 33 33 33 33 32 32 32 31 30 29 28 28 28 28 28 27 28
26 26 27 27 28 28 27 26 24 22 21 20 19 19 18 17 15 14 13 12 11 10 8 7 6 6 6 6 7 7 7 7 7 8 10 12 13 14 15 16 17 18 18 19 19 20 20 21 22 23 22 22 21 21 21 21 21 22 23 25 27 27 27 27 28 30 31 32 33 33 34 34 34 33 33 32 30 29 29 29 28 28 29 29 30
27 29 28 28 29 29 29 27 26 24 23 21 20 19 18 17 15 14 13 12 11 9 8 7 6 5 5 6 6 6 6 5 6 7 8 10 11 13 15 16 18 19 20 21 21 22 22 23 24 24 25 24 24 23 23 22 22 23 24 25 27 27 26 26 28 30 31 32 33 33 34 35 34 34 33 31 31 30 30 30 29 29 30 31 30
29 30 29 28 29 29 30 29 27 26 24 22 21 19 18 17 16 15 14 13 12 10 9 8 6 5 5 5 5 5 5 5 6 7 7 8 9 11 13 14 16 17 19 21 22 24 25 26 27 28 28 28 27 26 26 25 24 24 24 26 27 27 25 26 28 30 31 32 32 33 34 34 34 33 32 31 31 31 31 31 31 31 31 31 29
31 31 30 29 29 30 31 31 29 27 24 22 21 20 19 18 17 16 15 14 13 11 10 8 7 6 5 4 3 4 4 4 5 6 6 7 8 8 9 10 11 12 14 15 17 18 19 21 22 23 23 24 24 24 25 25 24 23 23 25 27 26 25 26 29 30 31 32 32 33 33 32 32 32 31 32 32 33 33 33 32 32 31 30 30
33 33 32 30 30 32 33 31 29 26 24 23 22 20 20 19 18 18 17 15 14 12 11 9 7 6 5 3 3 3 3 4 5 6 7 7 8 8 8 9 9 9 10 11 12 13 14 15 16 17 18 19 19 20 22 23 22 22 22 23 24 25 26 28 29 30 31 32 32 32 32 32 31 32 32 33 33 34 35 35 34 33 31 31 32
34 33 33 32 33 34 33 31 28 26 25 24 23 22 22 21 20 19 18 16 15 13 11 10 8 6 5 4 3 4 5 6 7 8 9 9 9 9 9 9 9 10 10 10 11 11 12 13 14 15 16 17 17 19 20 21 21 21 21 21 22 24 26 27 29 30 31 32 32 33 33 32 32 33 33 33 33 34 35 36 36 34 33 34 35
35 34 35 35 35 35 33 30 28 27 26 25 24 24 24 23 22 21 19 17 15 14 12 11 8 7 6 5 6 6 7 9 10 10 10 10 10 9 9 9 9 9 10 10 10 11 12 13 13 15 16 16 17 18 19 19 20 20 20 20 22 24 26 27 29 30 31 32 33 34 34 34 34 34 34 34 33 34 34 36 36 36 36 37 37
36 35 36 37 37 35 32 30 29 27 26 26 26 26 25 24 23 21 19 17 16 14 12 11 10 9 8 8 9 10 11 12 12 12 11 10 9 9 9 9 9 9 9 10 10 11 12 13 13 15 15 16 17 17 18 19 19 20 20 21 23 25 27 28 29 30 31 32 34 35 35 35 35 35 34 34 34 34 35 36 37 38 38 38 36
38 37 38 39 38 35 32 30 29 28 28 28 29 28 27 25 24 22 20 18 16 15 14 13 12 12 12 12 13 14 14 14 13 12 11 9 9 8 9 9 9 10 10 10 11 12 13 14 14 15 16 17 17 18 19 19 20 20 21 23 25 27 28 29 30 31 32 33 34 35 35 35 36 35 35 35 35 36 36 37 38 38 38 38 37
39 38 40 40 38 35 33 31 30 30 31 31 30 29 27 26 24 22 20 19 17 16 16 15 15 15 16 16 17 16 15 14 13 12 10 9 8 8 9 10 11 11 11 11 12 13 14 15 15 16 17 17 18 19 20 20 21 22 23 24 26 28 29 29 31 32 33 34 35 35 35 35 36 36 36 36 37 37 37 38 39 39 39 39 38
40 40 41 39 37 34 33 33 33 33 34 33 32 30 28 26 24 22 21 20 19 18 18 18 18 19 19 19 18 17 16 15 13 12 10 9 9 9 10 11 12 13 13 13 13 14 15 15 16 16 17 18 18 19 20 21 22 22 23 24 26 28 29 29 30 32 33 33 34 34 34 35 36 37 38 38 38 37 37 38 39 39 38 38 38
40 40 39 37 36 35 34 34 35 36 36 34 32 31 28 27 25 23 21 20 20 20 21 21 21 21 20 19 19 18 16 15 13 12 11 10 10 10 11 12 13 13 14 14 14 15 15 15 15 16 17 17 18 18 19 20 21 21 22 23 24 26 27 28 29 30 31 31 31 32 33 34 36 37 38 39 39 38 37 37 37 37 37 36 37
38 38 38 36 36 35 36 37 37 37 36 34 32 29 27 26 25 23 22 22 22 21 21 21 21 21 20 19 19 17 16 14 13 12 11 11 10 11 11 12 13 14 14 15 15 15 15 15 15 15 16 16 17 17 18 19 20 20 21 21 21 23 24 26 28 28 28 28 29 30 31 33 35 37 38 39 39 39 38 38 37 36 36 36 38
38 38 37 36 36 37 38 39 38 36 34 33 31 29 28 27 26 24 23 23 22 22 22 21 21 20 20 19 18 16 14 13 12 11 11 11 11 11 12 13 14 14 15 15 15 14 15 14 14 14 15 15 15 16 16 17 18 19 19 19 20 21 22 23 25 25 26 27 28 29 30 32 34 35 36 38 38 38 38 38 37 36 36 38 39
39 38 38 37 37 38 39 39 37 35 33 31 31 31 30 29 27 25 24 23 22 21 21 20 20 19 18 17 15 14 13 12 11 10 10 10 10 11 12 13 14 14 15 15 14 14 14 14 14 14 15 15 15 15 16 17 18 19 20 20 20 20 21 21 22 22 24 25 26 27 28 30 32 33 34 35 35 36 36 36 36 36 36 38 39
38 37 37 37 37 38 38 37 36 34 33 32 32 31 30 29 28 26 24 23 22 21 20 20 19 17 16 15 14 12 11 11 10 10 10 10 11 11 12 12 13 14 14 14 14 13 14 14 14 14 15 15 16 16 17 18 19 20 21 21 21 21 21 21 20 21 22 23 24 25 26 27 29 30 31 32 32 33 33 33 33 34 35 36 38
35 35 36 37 38 38 37 36 35 35 34 33 33 31 29 28 27 26 25 24 23 21 20 18 17 15 14 13 12 11 10 9 9 9 10 10 10 10 10 11 12 12 13 13 13 13 14 14 15 15 16 17 17 18 19 20 21 22 22 23 24 23 22 22 22 22 22 22 23 24 24 25 26 28 28 29 29 30 31 31 31 32 33 34 36
33 33 35 37 38 37 36 36 35 35 34 33 32 30 28 26 25 25 25 24 23 21 19 17 16 15 13 12 10 9 9 8 8 8 8 8 8 9 9 10 11 12 12 13 14 15 15 16 17 18 18 19 20 21 22 22 23 24 25 25 26 26 25 24 24 24 24 23 24 24 24 24 25 27 27 28 28 29 29 30 30 31 32 33 34
32 32 34 35 36 36 36 36 35 34 33 32 30 29 27 26 24 24 23 22 21 19 18 16 14 13 11 10 9 8 7 7 7 7 8 8 8 9 9 10 11 12 13 14 15 16 17 18 19 19 20 21 22 23 24 25 26 26 27 28 28 28 28 27 27 27 27 26 26 25 25 25 26 26 27 28 28 29 29 29 29 30 31 32 33
33 33 33 34 35 35 35 35 34 32 31 30 28 27 25 24 24 23 21 20 19 18 16 14 12 11 10 9 8 7 7 7 7 8 8 8 9 9 10 10 11 12 13 15 17 18 19 20 21 22 23 24 25 26 27 28 28 29 29 30 30 30 30 30 30 29 29 29 28 27 27 27 27 27 27 28 29 29 30 29 29 29 30 31 32
34 34 33 33 33 33 32 32 30 29 28 27 26 25 24 23 22 21 20 19 18 16 14 13 12 10 9 9 8 8 8 8 8 8 8 9 9 10 11 12 13 14 16 17 19 20 21 22 24 25 26 27 28 29 30 31 31 32 32 32 32 32 32 32 32 31 30 30 30 28 28 29 28 28 28 29 30 30 30 29 29 29 29 30 31
35 34 33 32 32 31 30 30 29 27 26 25 25 24 23 23 21 20 19 18 16 15 14 13 12 11 10 9 9 9 8 8 8 8 9 9 11 12 13 14 16 17 18 20 21 23 24 25 26 27 28 30 31 32 33 34 34 34 35 34 34 33 33 33 33 31 30 31 31 30 30 30 29 28 28 29 30 30 30 29 29 29 29 29 30
34 32 31 30 30 30 29 28 28 27 26 25 24 23 22 21 20 19 18 17 15 14 13 12 11 11 10 10 9 8 8 7 8 9 10 11 13 14 16 17 19 20 21 23 24 25 26 27 28 29 30 31 32 33 34 35 35 35 36 36 36 35 35 34 35 34 33 34 34 33 31 30 29 28 28 29 30 30 29 29 28 28 28 28 29
32 31 30 29 28 28 27 27 26 26 25 24 24 22 21 20 19 18 17 16 14 14 12 12 11 10 9 9 8 8 8 8 9 10 12 13 15 17 19 20 22 23 24 25 26 27 28 29 30 31 31 32 33 33 34 35 35 36 36 36 37 37 37 36 36 36 35 35 34 32 30 29 28 28 29 29 29 28 28 28 28 27 27 27 28
29 29 29 29 28 28 27 26 26 25 24 23 22 22 21 20 18 17 16 15 15 14 12 11 11 10 9 8 8 8 9 10 11 13 15 16 18 20 22 23 25 26 27 28 29 30 30 31 31 32 32 33 33 34 34 34 34 35 35 36 37 37 37 37 36 35 35 34 33 32 31 29 28 28 29 28 27 27 28 28 28 27 27 26 27
29 29 30 29 29 28 28 27 26 25 24 23 22 21 20 19 18 17 17 15 14 13 12 11 10 9 8 8 9 10 11 12 14 16 17 19 21 23 24 26 27 28 29 29 30 31 31 32 32 32 32 32 32 32 32 32 33 33 34 34 35 36 37 37 36 36 36 35 35 34 34 32 31 29 28 27 26 27 27 28 28 28 27 26 26
29 30 30 30 30 29 29 28 27 26 24 23 22 21 20 19 18 17 15 14 13 11 10 9 8 8 9 10 11 12 14 15 17 19 21 22 24 25 26 27 28 28 29 29 30 31 31 31 31 31 31 30 30 30 29 29 30 30 31 32 33 34 34 35 35 35 35 35 35 35 35 33 32 30 29 28 28 28 29 30 30 29 28 26 25
30 30 31 31 30 28 27 26 25 24 23 22 20 19 18 17 16 14 13 11 10 8 8 8 8 9 10 12 14 15 17 19 20 22 23 24 25 26 27 27 27 28 28 28 29 29 30 29 29 28 27 26 26 26 26 26 26 27 28 29 30 31 31 32 32 32 33 33 33 33 33 32 32 31 30 30 30 30 30 29 28 28 27 25 25
29 29 29 28 27 27 26 24 23 22 21 20 18 17 15 14 12 11 9 8 7 7 7 8 10 12 13 15 17 19 20 21 23 24 25 26 26 27 27 27 27 27 27 27 27 27 27 26 26 25 25 24 24 24 24 24 24 24 25 27 28 29 30 30 30 31 31 31 31 31 31 31 31 31 31 31 31 29 28 28 27 28 27 26 25
27 27 27 26 26 25 24 22 21 19 17 16 14 12 11 9 8 6 5 6 7 8 10 11 13 15 17 18 20 21 22 23 24 25 26 26 27 27 27 27 27 26 26 25 25 24 23 23 23 23 23 23 23 23 23 23 23 24 24 25 27 28 28 28 29 29 29 29 29 29 28 28 29 29 30 31 30 30 30 29 29 29 28 26 25
25 25 24 23 22 21 19 18 16 14 12 11 9 7 6 5 5 5 6 8 10 11 13 15 16 18 19 20 21 22 23 24 25 25 26 26 26 26 26 25 25 24 23 22 22 21 21 20 20 21 21 21 22 22 22 23 23 23 24 24 25 26 26 26 26 27 27 27 28 28 27 28 28 28 28 28 29 29 29 29 29 28 27 25 24
23 22 21 19 17 16 14 13 11 9 7 6 4 4 5 6 7 8 10 11 13 14 16 17 19 20 21 21 22 23 23 24 24 24 24 24 24 24 24 23 22 21 20 19 19 19 19 19 19 20 20 21 21 21 21 22 22 22 22 23 24 24 24 25 25 25 25 26 27 27 28 28 28 27 26 26 26 27 28 28 28 26 25 23 22
20 18 16 15 13 11 10 8 7 5 4 4 5 6 7 8 10 11 13 14 16 17 18 19 20 21 21 22 22 23 23 23 23 23 22 22 22 21 21 20 19 19 18 18 17 18 18 18 19 19 20 20 20 21 21 21 21 21 22 22 22 23 23 23 24 24 24 25 26 26 27 27 27 26 25 24 24 24 25 26 26 25 23 22 20
16 14 13 11 10 8 6 5 5 4 5 6 7 8 10 11 13 14 16 17 18 19 20 20 21 21 21 22 22 22 22 21 21 20 20 19 19 19 18 18 18 17 17 17 17 17 18 19 19 19 20 20 20 20 20 20 21 21 21 21 22 22 22 22 22 22 23 24 24 25 25 26 25 24 23 22 22 22 23 23 23 22 21 20 18
12 10 9 8 7 6 5 5 5 6 7 8 10 11 13 14 16 17 18 19 19 20 20 21 21 21 21 21 21 20 20 19 18 18 17 17 17 17 17 17 17 17 17 17 17 17 18 19 19 20 20 20 20 20 20 20 20 21 21 21 21 21 21 21 21 21 21 22 23 23 23 23 23 22 21 20 20 20 20 20 20 19 18 16 15
Wind_Direction
244 246 246 246 246 246 248 249 249 250 251 252 255 257 259 260 261 262 262 262 263 263 264 264 263 262 261 261 263 266 268 270 272 273 270 267 268 270 268 267 267 263 261 264 267 269 267 264 264 266 269 272 271 271 273 275 275 271 259 244 240 245 252 256 261 259 253 250 252 255 251 244 241 241 243 248 252 256 259 262 267 272 276 280 283
241 239 237 237 239 239 241 241 241 243 244 246 248 251 253 255 257 259 260 262 264 265 266 266 265 264 263 263 265 267 270 273 274 277 276 269 270 275 270 265 266 264 262 261 264 268 269 266 261 262 269 275 272 272 274 276 276 267 250 243 245 250 258 264 267 263 254 247 248 251 248 242 240 241 244 248 252 255 258 261 266 270 274 279 283
231 228 228 229 232 234 236 237 237 237 238 240 243 246 250 252 256 259 261 263 264 265 267 267 267 267 265 264 263 263 267 269 266 268 271 268 269 275 272 266 266 268 269 267 263 266 271 271 264 259 268 275 271 268 271 274 274 265 256 254 253 259 267 269 268 263 252 243 243 246 246 243 241 243 245 247 250 253 257 260 264 268 272 277 283
219 220 222 225 228 230 231 230 230 231 232 236 239 243 249 253 257 261 263 264 266 268 269 269 269 267 266 262 257 254 255 256 255 257 262 263 265 270 272 268 265 266 270 269 266 269 274 276 271 267 272 274 266 265 270 269 270 270 269 266 262 264 268 268 268 261 247 237 237 241 243 243 242 244 244 246 249 252 255 258 263 266 269 275 283
213 215 217 220 221 220 220 220 221 223 226 231 237 244 250 256 260 263 266 267 269 269 268 267 266 265 265 262 258 256 255 254 255 256 256 258 262 265 265 265 265 267 271 269 267 270 273 276 276 276 279 275 262 260 269 269 270 273 273 271 268 265 266 270 270 256 238 232 233 237 240 240 241 242 242 244 247 249 252 256 261 265 268 275 282
206 207 208 210 210 211 212 214 216 220 224 229 237 244 249 256 260 264 268 268 267 267 266 267 268 267 268 267 265 263 259 255 253 253 253 252 257 264 264 263 262 264 269 271 269 267 267 272 275 277 281 276 262 260 271 271 271 272 271 271 271 266 266 273 269 248 233 231 233 236 239 240 242 243 243 245 247 249 251 255 259 264 269 275 281
197 198 200 203 207 210 211 214 217 220 226 230 237 246 251 258 263 265 268 267 267 268 268 270 270 269 268 266 264 262 259 256 253 254 255 252 253 258 261 261 262 262 265 268 269 266 265 272 277 277 279 275 262 259 268 271 275 277 274 272 271 267 269 273 263 240 229 231 233 237 240 241 243 244 246 247 248 249 251 254 259 264 268 275 281
193 196 201 205 210 214 216 219 221 223 228 233 241 249 254 259 263 264 265 266 266 267 267 267 266 265 265 263 262 261 260 258 255 254 255 254 255 258 257 258 262 263 264 265 266 266 267 273 280 282 283 276 262 258 266 274 280 281 278 274 272 269 269 267 250 231 229 233 235 238 240 242 245 246 247 247 247 250 253 255 260 262 267 275 281
202 207 212 215 217 220 220 222 224 227 230 235 241 248 253 258 262 263 264 265 265 265 265 265 266 266 268 267 266 264 262 260 257 254 252 250 253 255 254 256 260 261 263 264 263 263 263 267 276 283 285 276 264 262 271 279 280 280 277 273 270 267 263 250 234 227 230 233 235 238 241 243 245 246 247 249 251 254 254 254 257 260 267 275 278
215 220 225 226 226 226 225 225 226 229 233 238 245 252 257 262 264 265 266 265 266 268 267 267 270 271 272 271 269 267 265 263 259 256 251 247 247 249 250 254 256 258 260 261 262 260 258 261 269 274 275 269 262 265 274 279 279 277 273 269 265 259 247 231 224 226 231 234 236 239 241 243 247 249 251 254 254 253 252 253 257 260 265 270 273
224 230 235 236 235 232 229 228 228 230 236 243 250 257 262 265 267 266 267 266 265 268 268 268 272 274 272 270 268 266 266 264 261 258 255 252 251 250 251 252 254 256 259 260 261 259 257 261 264 261 256 254 261 272 278 280 279 275 270 266 257 244 229 222 225 230 234 237 238 241 243 247 250 252 254 255 253 251 252 254 257 259 262 266 270
230 235 239 241 240 237 232 230 229 233 240 247 254 261 264 266 268 266 265 266 266 267 270 272 275 277 275 272 269 267 268 270 272 270 266 262 258 252 250 252 254 258 261 263 261 258 258 262 260 250 244 252 266 275 278 279 279 276 272 263 246 230 221 224 233 238 241 243 244 245 247 251 253 253 254 255 254 253 254 254 255 257 261 266 270
239 241 242 243 243 239 233 229 231 235 242 249 257 263 265 265 265 264 262 263 265 267 273 276 277 278 279 277 276 277 278 280 280 278 274 269 262 253 246 248 251 255 259 262 262 260 259 255 248 242 245 257 267 273 275 280 284 282 273 257 238 227 225 230 236 240 243 246 247 248 251 253 255 256 257 256 256 254 254 256 258 260 263 268 272
249 250 249 246 243 239 232 229 232 237 244 251 258 262 263 262 260 259 257 259 263 267 273 275 277 279 279 279 280 280 282 284 280 274 270 268 264 258 251 249 252 255 258 260 260 259 254 246 241 243 250 261 271 273 274 280 286 282 269 252 238 232 233 236 240 243 245 248 250 253 255 256 257 258 256 255 254 254 257 260 262 263 265 268 269
252 254 251 246 244 239 233 231 234 239 245 252 258 261 260 258 255 254 254 257 260 264 267 267 268 269 269 269 270 271 272 275 273 268 265 266 268 268 264 260 259 261 262 263 264 262 254 248 247 249 255 267 272 270 271 277 278 274 263 251 243 241 243 246 248 251 253 255 256 258 259 259 259 259 255 253 252 255 258 260 262 263 265 266 267
252 253 249 246 244 240 235 233 237 241 246 251 255 258 256 252 249 248 249 251 253 256 256 251 249 250 254 255 257 262 266 270 274 274 271 270 270 270 271 271 269 269 268 268 269 267 261 254 253 255 261 269 271 269 273 276 273 267 259 251 249 249 250 253 254 256 258 259 260 261 261 260 259 258 255 253 254 254 256 258 262 265 266 267 269
251 251 248 244 243 239 235 235 238 242 247 251 253 253 250 246 244 244 245 244 243 242 236 226 226 231 240 249 253 260 270 274 280 280 275 272 268 266 267 269 269 270 270 270 269 268 265 262 261 263 267 271 274 275 277 277 274 267 259 254 254 254 255 257 259 260 262 262 263 263 262 261 260 258 257 255 255 255 256 259 263 266 268 269 270
249 249 246 244 241 238 235 235 239 243 248 250 251 248 243 240 240 239 237 232 226 222 214 207 208 212 221 237 243 251 265 274 279 281 281 280 278 274 272 271 270 272 272 272 272 270 269 268 269 271 274 277 280 282 281 280 278 270 262 258 258 258 260 263 265 266 266 266 266 266 265 264 263 262 260 259 258 258 258 261 265 267 268 269 270
247 246 246 243 239 236 234 236 239 243 247 249 247 242 237 235 235 231 223 215 208 205 198 189 187 187 196 217 231 242 257 268 277 286 291 295 294 291 289 287 285 284 282 281 280 278 276 274 273 275 277 280 282 283 282 280 277 271 264 261 260 260 262 265 268 269 271 271 271 270 269 269 268 267 265 263 261 261 261 262 265 267 268 269 270
244 244 244 241 236 234 234 236 240 244 247 246 241 236 232 229 225 217 207 201 198 192 183 176 174 173 181 201 224 244 260 271 284 295 301 303 304 304 304 304 303 301 300 298 296 294 291 288 283 282 282 283 283 282 280 277 274 270 263 260 262 264 265 266 267 269 271 271 271 271 271 272 271 269 267 264 263 263 263 265 267 268 270 271 272
244 244 243 239 235 233 234 237 241 243 243 239 233 229 225 219 211 203 197 193 188 181 175 175 176 175 181 196 227 257 276 286 292 299 302 305 310 313 316 319 321 323 323 322 320 318 314 308 301 295 289 285 283 280 278 274 270 265 261 262 267 269 268 267 268 269 270 271 271 273 273 272 271 269 267 265 265 266 268 270 272 273 272 272 273
246 245 242 237 234 234 235 238 240 240 236 231 225 221 215 207 199 195 189 185 181 178 178 180 180 183 191 206 237 263 279 285 287 291 295 300 306 311 316 324 329 333 336 336 333 328 321 314 308 300 292 285 280 276 274 272 268 264 263 265 269 270 270 270 270 270 271 272 273 274 273 273 273 271 270 269 269 271 272 274 275 275 273 272 273
247 245 240 236 234 234 235 237 238 235 230 224 219 213 206 199 194 189 186 184 183 183 184 185 187 194 206 220 238 251 259 266 271 276 281 288 296 303 311 319 324 327 331 331 327 321 315 310 304 298 292 286 279 273 269 267 265 265 265 266 268 269 269 269 270 272 273 274 274 274 274 274 275 273 273 273 273 272 272 272 273 272 272 271 271
245 241 237 236 234 234 235 236 234 230 223 216 210 204 199 195 191 188 187 187 188 188 191 195 199 207 217 226 236 243 247 252 258 262 268 278 286 295 304 311 314 317 320 320 317 313 309 306 301 297 292 286 281 274 267 264 264 267 268 268 269 269 270 271 273 275 276 276 275 276 277 277 277 277 276 275 272 269 268 267 268 268 268 269 270
241 239 236 234 233 233 234 233 228 222 215 209 203 199 196 193 191 191 191 191 192 195 199 204 209 216 224 229 234 239 242 244 250 256 262 271 279 288 298 302 305 310 312 314 314 312 309 307 303 300 296 290 286 280 274 269 267 268 270 271 271 272 274 276 278 279 279 279 280 281 282 281 281 280 279 276 272 269 267 266 266 267 268 270 273
239 238 235 232 232 233 232 228 221 213 207 203 199 197 195 194 193 194 194 195 198 202 206 212 217 221 227 230 233 236 238 240 245 250 254 261 268 278 289 294 299 304 307 310 312 310 310 311 309 306 303 298 294 290 285 280 276 273 274 276 277 278 279 282 283 284 284 285 285 286 286 285 284 282 279 277 275 272 272 271 269 269 271 272 273
239 236 233 231 231 231 228 222 214 206 202 199 197 195 195 195 196 198 198 201 204 208 211 217 221 224 228 231 232 233 234 236 240 244 249 257 265 274 284 290 296 303 305 308 311 310 311 313 312 310 307 304 301 299 295 291 287 283 282 282 283 285 285 286 287 286 287 288 289 289 289 288 286 285 283 281 280 277 276 275 273 272 272 271 272
238 235 232 231 230 228 223 215 208 203 201 198 197 197 197 197 198 199 202 205 209 214 218 221 223 227 229 230 230 231 231 234 238 243 250 259 268 278 287 293 299 304 306 308 311 312 313 314 312 311 308 306 306 305 302 300 297 293 291 289 288 289 289 289 289 288 290 291 291 291 291 290 289 289 288 286 285 283 281 279 277 276 274 271 271
236 232 230 229 227 223 216 208 204 202 200 198 197 198 199 199 200 202 205 208 212 217 221 224 226 228 228 228 229 230 230 234 239 246 256 266 276 286 293 298 301 304 305 309 312 314 314 314 312 309 307 306 306 306 304 302 300 298 297 295 292 291 291 291 292 293 295 295 293 293 294 293 292 292 291 290 290 290 288 285 283 281 278 274 274
233 230 228 226 222 217 209 204 202 202 200 199 198 198 199 200 202 204 207 211 214 218 221 224 226 226 226 227 228 230 234 240 247 255 264 274 283 291 296 299 301 303 306 309 313 314 313 313 311 308 306 305 305 304 301 300 298 298 298 296 295 294 294 293 295 298 299 298 296 295 295 294 294 294 294 294 295 294 293 291 289 286 282 279 277
231 228 225 222 217 211 205 202 201 200 201 202 202 203 203 203 203 204 207 211 214 217 220 222 224 224 225 226 227 231 238 245 253 261 271 280 288 293 297 299 301 303 305 308 311 311 311 312 312 309 307 307 307 305 303 303 302 301 301 300 299 299 298 297 298 299 297 295 296 296 296 296 296 297 297 297 298 297 296 295 293 290 287 283 281
229 226 222 217 212 206 203 202 202 201 202 204 205 206 207 206 204 204 206 209 213 216 218 219 220 221 223 226 229 234 241 249 260 271 279 287 292 295 297 299 300 302 303 305 308 310 310 311 312 311 310 310 310 309 307 307 306 305 304 303 303 303 302 301 300 297 295 295 297 298 298 298 299 299 299 300 299 299 299 297 295 293 291 287 284
225 223 219 213 207 204 203 203 204 205 206 207 206 206 207 208 210 209 208 209 211 213 215 215 215 217 221 226 231 238 245 256 267 276 282 288 291 292 295 296 297 298 300 303 306 309 309 310 311 311 310 310 310 309 308 307 305 304 303 302 302 302 302 301 300 297 296 297 298 298 299 300 301 301 301 301 301 301 300 298 298 296 294 290 288
220 219 216 210 206 205 205 206 207 209 209 208 208 207 205 207 211 214 214 213 210 209 210 210 212 215 219 225 234 243 252 261 267 272 277 281 284 286 289 291 293 297 301 304 307 308 308 309 310 310 309 310 309 308 306 305 303 301 300 299 299 299 298 298 297 296 295 296 296 297 298 300 301 301 301 301 302 301 300 299 300 299 296 294 293
214 213 211 210 208 208 208 209 209 210 209 207 207 206 204 205 207 210 213 213 209 207 206 207 210 214 218 225 233 239 246 253 258 263 269 273 277 281 286 290 296 300 304 306 308 309 310 310 310 309 309 309 308 307 305 303 301 300 299 298 297 297 296 295 295 294 294 294 294 295 297 299 299 299 300 300 300 299 299 300 301 300 299 297 295
210 208 208 210 211 211 211 210 209 208 207 205 203 202 202 204 205 205 205 205 204 204 204 204 206 208 212 218 224 228 236 243 249 256 265 271 277 284 289 295 300 304 306 308 309 310 310 310 309 308 308 308 307 305 302 300 300 299 298 297 296 295 295 295 294 294 294 294 295 296 298 299 299 300 299 298 298 297 297 299 300 300 300 299 297
208 207 207 209 211 211 211 209 206 204 202 201 200 199 199 200 201 201 200 200 200 201 201 201 201 201 204 210 215 223 232 240 248 258 268 276 284 291 296 300 304 306 307 308 308 308 308 307 306 307 307 306 305 303 301 300 300 299 299 298 297 296 296 296 297 298 298 298 298 299 300 299 299 299 298 296 296 296 296 298 299 299 299 299 298
208 208 208 209 210 209 208 205 201 198 197 196 196 197 197 196 196 196 196 196 197 196 195 194 195 198 204 210 216 223 233 243 256 269 279 286 293 297 300 303 305 306 306 306 305 305 304 304 305 305 305 304 303 302 302 302 301 301 300 299 298 297 297 297 297 297 297 297 296 296 297 296 296 297 296 294 294 294 296 297 298 298 298 298 297
207 207 207 208 207 205 203 201 198 194 192 191 190 190 192 192 192 191 192 192 192 192 191 192 196 201 206 211 219 230 243 256 269 278 284 289 293 297 299 301 302 303 304 304 303 303 303 303 304 304 303 303 302 302 301 301 301 301 300 300 298 297 296 295 295 294 293 292 292 292 293 293 295 295 294 292 292 294 295 296 296 296 297 297 297
206 203 202 202 201 199 197 196 194 191 188 187 187 186 188 189 189 188 188 188 189 191 194 197 202 206 210 215 224 238 252 262 272 279 284 289 294 297 299 301 301 302 302 302 302 302 302 303 303 303 302 302 301 301 301 301 300 300 300 299 298 298 297 296 296 296 296 296 296 296 295 294 293 293 291 291 292 293 293 294 295 295 295 294 295
202 199 197 196 194 191 189 188 187 186 185 186 186 186 185 185 184 184 186 188 191 194 196 199 206 213 220 229 240 251 261 270 278 284 289 293 296 298 299 300 301 301 301 301 301 301 302 302 302 302 301 301 301 300 300 300 300 300 299 298 298 297 297 297 297 297 297 297 297 295 294 292 291 291 290 291 292 293 292 292 293 293 293 292 292
197 195 193 189 185 184 183 182 182 183 182 182 183 182 182 182 183 184 187 190 192 196 199 205 213 223 234 247 259 268 275 282 286 289 292 295 296 297 298 299 299 300 300 300 301 301 301 302 302 301 301 301 301 301 301 302 301 301 300 299 299 298 298 298 298 297 296 295 294 293 292 292 292 291 290 290 291 290 290 289 289 290 291 289 288
192 189 186 182 180 180 180 180 180 179 178 178 178 179 180 183 185 186 189 191 194 199 206 215 229 242 255 266 274 280 285 288 290 292 294 295 295 296 296 297 297 298 299 299 300 301 301 301 301 301 301 302 302 303 304 304 304 304 303 303 302 302 301 301 301 300 299 297 295 294 293 293 293 291 289 287 287 286 285 286 286 287 287 285 284
184 182 180 177 175 175 176 176 175 175 176 177 179 180 182 185 187 188 190 193 200 210 223 238 254 266 274 280 284 286 288 290 291 292 294 294 295 295 296 296 297 298 299 299 300 300 300 300 301 301 302 303 304 305 305 306 306 307 307 306 306 305 305 305 304 303 302 300 298 297 296 294 293 290 288 287 287 287 287 287 287 286 284 282 280
179 178 176 174 172 172 172 173 173 175 177 178 179 182 183 186 189 192 197 205 220 239 255 266 275 280 283 285 286 287 289 290 292 293 294 295 296 296 297 298 299 299 299 299 299 299 300 300 301 302 304 305 306 307 308 309 309 309 309 309 308 308 308 308 307 305 304 302 301 299 297 294 291 288 287 287 287 287 287 287 286 286 285 282 278
175 175 173 172 171 172 172 172 173 174 175 176 179 182 184 189 198 209 225 244 259 270 276 279 281 283 284 285 286 288 290 291 293 295 296 297 298 299 299 300 300 300 300 300 300 300 300 301 302 304 306 307 310 312 312 313 313 312 311 310 309 309 309 308 307 307 306 305 302 300 297 295 292 289 286 285 284 284 284 284 284 285 286 284 279
171 171 171 171 171 170 170 169 169 169 171 173 178 185 196 215 238 256 267 275 278 280 281 281 282 283 285 286 288 290 292 293 295 296 297 298 299 300 300 300 300 300 300 299 299 300 301 303 305 308 310 312 314 315 315 314 313 312 312 310 309 308 308 307 307 307 308 306 303 299 296 293 290 288 286 285 283 283 283 283 283 285 286 284 281
169 169 168 166 165 163 162 161 161 164 170 179 197 224 247 263 273 277 278 280 281 281 283 284 285 286 287 289 290 292 293 295 296 297 298 298 299 299 299 299 299 298 299 299 300 302 305 308 310 312 313 315 315 315 315 315 314 313 313 312 310 310 309 308 308 309 308 305 302 298 294 291 288 286 285 283 282 282 283 283 283 284 284 283 280
164 162 160 157 156 154 155 157 164 177 198 225 248 262 270 275 279 280 281 282 283 284 285 286 286 287 288 290 291 292 294 295 296 297 297 297 297 297 297 297 298 298 300 303 305 307 309 311 313 313 314 315 315 315 315 316 317 317 316 314 313 312 311 311 311 311 309 306 303 298 294 291 288 286 284 282 280 280 281 282 282 283 281 279 276
155 155 154 155 157 160 167 179 196 218 240 254 263 271 276 279 281 282 283 283 283 284 284 284 285 286 287 289 290 292 293 294 295 295 296 296 296 296 297 298 299 301 303 306 308 310 311 311 312 312 312 313 313 314 315 317 319 319 318 316 315 315 314 314 314 314 312 309 305 301 296 293 290 287 285 282 280 280 280 280 281 280 278 275 273
154 157 161 166 173 184 197 214 231 247 258 267 273 277 279 280 281 282 282 282 282 282 282 283 284 285 287 288 289 290 290 291 292 293 294 294 295 295 297 299 300 302 304 306 308 309 310 309 309 309 310 310 311 313 314 316 318 318 318 317 317 317 318 318 318 317 316 313 310 305 301 297 293 290 287 283 280 279 280 279 278 276 272 269 267